Location: *
(51.5000°N, 0.1100°W)
Time: 17:05:58
(UTC+00:00)

Cosmos 405 Rocket - Pass Details

Date: 25 May 2024
Orbit: 456 x 503 km, 81.3° (Epoch: 16 June)

Event Time Altitude Azimuth Distance (km) Brightness Sun altitude
Rises 02:15:12 0° 352° (N) 2,521 7.0 -11.4°
Reaches altitude 10° 02:17:22 10° 359° (N) 1,647 6.2 -11.3°
Maximum altitude 02:20:49 43° 73° (ENE) 681 3.7 -11.0°
Drops below altitude 10° 02:24:18 10° 146° (SE) 1,660 5.1 -10.7°
Sets 02:26:29 0° 153° (SSE) 2,545 5.9 -10.5°
